• Join FlightAware (Why Join?)
  • Login
  • US Flag 
12:43PM EST


 

Airport Tracker/Info


-or-


 

Live Flight TrackerFlight Track Log ✈ N400PU ✈ 16-Dec-2013 ✈ KIND - KIAD

Flight Track Log - Related Links

Times and Time Zones

All times are in EST time to prevent confusion due to time zone crossing. See the N400PU flight status page for this flight to view local times or setup timezone preferences in your user account.

Time Position Orientation Groundspeed Altitude Reporting Facility
EST Latitude Longitude Course Direction KTS MPH feet Rate Location/Type
09:45AM 39.7167 -86.2833 38° Northeast 144 166 1,400  Level Indianapolis TRACON
09:46AM 39.7333 -86.2667 38° Northeast 172 198 2,100 2,357 Climbing Indianapolis TRACON
09:47AM 39.7833 -86.2167 38° Northeast 245 282 4,700 2,304 Climbing Indianapolis TRACON
09:48AM 39.8008 -86.1061 78° East 260 299 7,400 2,014 Climbing Indianapolis Center
09:49AM 39.8119 -85.9947 83° East 300 345 9,400 2,226 Climbing Indianapolis Center
09:50AM 39.8242 -85.8367 84° East 360 414 12,000 2,468 Climbing Indianapolis Center
09:51AM 39.8203 -85.6933 92° East 390 449 14,500 2,226 Climbing Indianapolis Center
09:52AM 39.8172 -85.5469 92° East 403 464 16,600 1,645 Climbing Indianapolis Center
09:53AM 39.8139 -85.3908 92° East 428 493 17,900 1,500 Climbing Indianapolis Center
09:54AM 39.8106 -85.2311 92° East 443 510 19,700 1,500 Climbing Indianapolis Center
09:55AM 39.8056 -85.0689 92° East 450 518 21,000 1,500 Climbing Indianapolis Center
09:56AM 39.8011 -84.8753 92° East 471 542 22,800 1,790 Climbing Indianapolis Center
09:57AM 39.8008 -84.7069 90° East 468 539 24,700 1,056 Climbing Indianapolis Center
09:58AM 39.8197 -84.5342 82° East 482 555 25,000 720 Climbing Indianapolis Center
09:59AM 39.8378 -84.3519 83° East 505 581 26,200 1,742 Climbing Indianapolis Center
10:00AM 39.8397 -84.1386 89° East 492 566 28,600 1,839 Climbing Indianapolis Center
10:01AM 39.8311 -83.9622 94° East 489 563 30,000 774 Climbing Indianapolis Center
10:02AM 39.8219 -83.7803 94° East 503 579 30,200 774 Climbing Indianapolis Center
10:03AM 39.8128 -83.5953 94° East 513 590 31,600 1,403 Climbing Indianapolis Center
10:04AM 39.8031 -83.4031 94° East 510 587 33,100 1,258 Climbing Indianapolis Center
10:05AM 39.7919 -83.2111 94° East 505 581 34,200 1,016 Climbing Indianapolis Center
10:06AM 39.7819 -83.0319 94° East 502 578 35,200 919 Climbing Indianapolis Center
10:07AM 39.7722 -82.8547 94° East 495 570 36,100 774 Climbing Indianapolis Center
10:09AM 39.7611 -82.6808 95° East 486 559 36,800 435 Climbing Indianapolis Center
10:10AM 39.7483 -82.4686 94° East 491 565 37,000 97 Climbing Indianapolis Center
10:11AM 39.7367 -82.2881 95° East 500 575 37,000  Level Indianapolis Center
10:12AM 39.7247 -82.1042 95° East 510 587 37,000  Level Indianapolis Center
10:13AM 39.7128 -81.9197 95° East 514 592 37,000  Level Indianapolis Center
10:14AM 39.7003 -81.7350 95° East 515 593 37,000  Level Indianapolis Center
10:15AM 39.6853 -81.5153 95° East 511 588 37,000  Level Indianapolis Center
10:16AM 39.6722 -81.3347 95° East 505 581 37,000  Level Indianapolis Center
10:17AM 39.6589 -81.1486 95° East 513 590 37,000  Level Indianapolis Center
10:18AM 39.6447 -80.9614 96° East 517 595 37,000  Level Indianapolis Center
10:19AM 39.6306 -80.7769 96° East 513 590 37,000 -48 Level Indianapolis Center
10:20AM 39.6167 -80.5936 96° East 509 586 36,900 -532 Descending Indianapolis Center
10:21AM 39.6022 -80.4100 96° East 511 588 35,900 -968 Descending Indianapolis Center
10:22AM 39.5878 -80.2289 96° East 507 583 34,900 -1,065 Descending Indianapolis Center
10:23AM 39.5697 -80.0133 96° East 502 578 33,700 -1,083 Descending Indianapolis Center
10:24AM 39.5406 -79.7667 99° East 511 588 32,300 -1,250 Descending Cleveland Center
10:25AM 39.5061 -79.5839 104° East 524 603 30,700 -1,623 Descending Cleveland Center
10:26AM 39.4767 -79.3933 101° East 515 593 29,000 -1,636 Descending Washington Center
10:27AM 39.4442 -79.2303 104° East 515 593 27,400 -2,628 Descending Washington Center
10:28AM 39.4097 -79.0542 104° East 515 593 23,700 -3,124 Descending Washington Center
10:29AM 39.3808 -78.8942 103° East 471 542 21,100 -2,521 Descending Washington Center
10:30AM 39.3558 -78.7428 102° East 450 518 18,700 -2,370 Descending Washington Center
10:31AM 39.3283 -78.5914 103° East 435 501 16,400 -2,066 Descending Washington Center
10:32AM 39.3006 -78.4481 104° East 418 481 14,500 -1,884 Descending Washington Center
10:33AM 39.2619 -78.3206 111° Southeast 403 464 12,600 -1,866 Descending Washington Center
10:34AM 39.2078 -78.2167 124° Southeast 362 417 10,800 -1,311 Descending Washington Center
10:35AM 39.1536 -78.1183 125° Southeast 350 403 10,000 -496 Descending Washington Center
10:36AM 39.0994 -78.0147 124° Southeast 345 397 9,800 -1,008 Descending Washington Center
10:37AM 39.0472 -77.9169 124° Southeast 339 390 8,000 -1,729 Descending Washington Center
10:38AM 39.0011 -77.8272 123° Southeast 323 372 6,400 -984 Descending Washington Center
10:39AM 38.9614 -77.7219 116° Southeast 303 349 6,000 -197 Descending Washington Center
10:40AM 38.9439 -77.6333 104° East 285 328 6,000 -96 Level Washington Center
10:42AM 38.8667 -77.5833 153° Southeast 239 275 5,800 -807 Descending Potomac TRACON
10:42AM 38.8167 -77.5667 165° South 222 255 4,400 -1,368 Descending Potomac TRACON
10:43AM 38.8000 -77.5000 108° East 229 264 3,200 -1,100 Descending Potomac TRACON
10:44AM 38.8500 -77.4667 27° Northeast 211 243 2,200 -900 Descending Potomac TRACON
10:45AM 38.8833 -77.4667 360° North 145 167 1,400 -750 Descending Potomac TRACON
10:46AM 38.9167 -77.4667 360° North 118 136 700 -700 Descending Potomac TRACON
10:48AM 38.9333 -77.4500 165° South  Level FlightAware Approximate
10:55AM 38.9474 -77.4599 165° South  Level Estimated
10:56AM 38.9474 -77.4599 165° South  Level Estimated
10:57AM 38.9474 -77.4599 165° South  Level Estimated
10:58AM 38.9474 -77.4599 165° South  Level Estimated